User: anonymous   Login
Location: Unspecified
(0.0000°N, 0.0000°E)
Time: 19:28:44
(UTC+00:00)
Language:

Cosmos 1249 - Orbit

View from above orbital plane
View from above orbital plane
View from above satellite
View from above satellite

Ground track
Ground track

The orbit data is extracted from the following two-line orbital elements,

1 12319U 81021A   18019.10392008 -.00000085  00000-0  35059-5 0  9991
2 12319  64.9619 221.0796 0055573 204.4310 155.4116 13.86602612869246
Epoch (UTC): 19 January 2018 02:29:38
Eccentricity: 0.0055573
inclination: 64.9619°
perigee height: 900 km
apogee height: 981 km
right ascension of ascending node: 221.0796°
argument of perigee: 204.4310°
revolutions per day: 13.86602612
mean anomaly at epoch: 155.4116°
orbit number at epoch: 86924

The dashed part of the orbit path shows where the satellite is in the earth's shadow,  

DLR